Flag for Madagascar Weather past 2 weeks in Antananarivo, Madagascar

63 °F

Passing clouds.

Feels Like: 63 °F
Forecast: 57 / 80 °F
Wind: 10 mph from Southeast

Location: Antananarivo / Ivato

Current Time: Oct 13, 2015 at 9:36:55 PM

Latest Report: Oct 13, 2015 at 9:00 PM

Visibility: N/A

Pressure: 30.27 "Hg (26.01 "Hg at 1287m altitude)

Humidity: 100%

Dew point: 63 °F

Location of AntananarivoLocation

Historic Weather in Antananarivo — Graph


Antananarivo temperature yesterday

Maximum temperature yesterday: 86 °F (at 1:00 PM)
Minimum temperature yesterday: 61 °F (at 1:30 AM)
Average temperature yesterday: 71 °F

Past Weeks' High & Low Weather Summary

High91 °F (Oct 7, 1:00 PM)100% (Sep 28, 8:30 PM)30.36 "Hg (Sep 28, 8:30 PM)
Low50 °F (Oct 6, 5:30 AM)18% (Oct 7, 1:30 PM)30.04 "Hg (Sep 29, 2:30 PM)
Average68 °F78%30.22 "Hg
* Reported Sep 28 8:30 PM — Oct 13 8:30 PM, Antananarivo, Weather by CustomWeather, © 2015

Note: Actual official high and low records may vary slightly from our data, if they occured in-between our weather recording intervals... More about our weather records


Antananarivo weather history for previous 24 hours

Time TempWeatherWind HumidityBarometerVisibility
8:30 PM
Tue, Oct 13
63 °FPassing clouds.12 mph100%30.27 "HgN/A
8:00 PM64 °FPassing clouds.10 mph94%30.27 "HgN/A
7:30 PM64 °FPassing clouds.13 mph100%30.24 "HgN/A
7:00 PM66 °FPassing clouds.14 mph94%30.24 "HgN/A
6:30 PM66 °FPassing clouds.12 mph94%30.21 "HgN/A
6:00 PM68 °FPassing clouds.14 mph83%30.21 "HgN/A
5:30 PM72 °FPassing clouds.15 mph78%30.21 "HgN/A
5:00 PM73 °FPassing clouds.15 mph69%30.18 "HgN/A
4:30 PM77 °FPassing clouds.12 mph57%30.18 "HgN/A
4:00 PM79 °FScattered clouds.10 mph54%30.18 "HgN/A
3:30 PM81 °FScattered clouds.9 mph48%30.15 "HgN/A
3:00 PM81 °FScattered clouds.9 mph51%30.15 "HgN/A
2:30 PM82 °FPassing clouds.6 mph45%30.18 "HgN/A
2:00 PM82 °FScattered clouds.8 mph51%30.18 "HgN/A
1:30 PM82 °FScattered clouds.7 mph51%30.18 "HgN/A
1:00 PM81 °FScattered clouds.10 mph51%30.21 "HgN/A
12:30 PM81 °FPassing clouds.10 mph48%30.21 "HgN/A
12:00 PM81 °FPassing clouds.10 mph51%30.24 "HgN/A
11:30 AM81 °FPassing clouds.9 mph48%30.24 "HgN/A
11:00 AM79 °FPassing clouds.6 mph48%30.27 "HgN/A
10:30 AM77 °FPassing clouds.7 mph57%30.27 "HgN/A
10:00 AM75 °FPassing clouds.8 mph57%30.27 "HgN/A
9:30 AM75 °FPassing clouds.10 mph57%30.30 "HgN/A
9:00 AM72 °FPassing clouds.9 mph69%30.30 "HgN/A
8:30 AM70 °FScattered clouds.8 mph78%30.30 "HgN/A
8:00 AM66 °FPartly sunny.10 mph83%30.30 "HgN/A
7:30 AM66 °FScattered clouds.10 mph83%30.30 "HgN/A
7:00 AM64 °FPassing clouds.8 mph94%30.30 "HgN/A
6:30 AM63 °FPassing clouds.9 mph94%30.27 "HgN/A
6:00 AM61 °FScattered clouds.7 mph94%30.27 "HgN/A
5:30 AM61 °FPartly sunny.3 mph94%30.27 "HgN/A
5:00 AM59 °FPartly cloudy.No wind100%30.27 "HgN/A
4:30 AM57 °FPartly cloudy.No wind100%30.24 "HgN/A
4:00 AM59 °FPartly cloudy.6 mph100%30.24 "HgN/A
3:30 AM61 °FPartly cloudy.7 mph100%30.24 "HgN/A
3:00 AM63 °FPassing clouds.7 mph94%30.24 "HgN/A
2:00 AM63 °FPassing clouds.8 mph94%30.27 "HgN/A
1:30 AM63 °FPassing clouds.7 mph94%30.27 "HgN/A
1:00 AM63 °FPassing clouds.9 mph100%30.27 "HgN/A
12:00 AM63 °FPassing clouds.7 mph100%30.27 "HgN/A
11:00 PM
Mon, Oct 12
63 °FPassing clouds.9 mph100%30.30 "HgN/A
10:30 PM63 °FPassing clouds.10 mph100%30.30 "HgN/A
10:00 PM63 °FPassing clouds.8 mph100%30.33 "HgN/A
9:30 PM64 °FPassing clouds.9 mph94%30.33 "HgN/A
9:00 PM64 °FPassing clouds.3 mph94%30.33 "HgN/A
Weather by CustomWeather, © 2015

See weather overviewHow to use our weather pages